Flushing, NY

6:45 AM EST on February 13, 2016 (GMT -0500)
La Guardia

Weather History for KLGA - October, 2011

Change the Weather History Date:

Monday, October 24, 2011

  Actual Average Record
Temperature  
Mean Temperature 56 °F 55 °F  
Max Temperature 61 °F 62 °F 80 °F (2001)
Min Temperature 50 °F 48 °F 30 °F (1969)
Degree Days  
Heating Degree Days 9 10  
Month to date heating degree days 106 160  
Since 1 July heating degree days 125 195  
Cooling Degree Days 0 0  
Month to date cooling degree days 24 20  
Year to date cooling degree days 1375 1210  
Growing Degree Days 6 (Base 50)    
Moisture  
Dew Point 44 °F    
Average Humidity 65    
Maximum Humidity 77    
Minimum Humidity 53    
Precipitation  
Precipitation T in 0.12 in 1.43 in (1959)
Month to date precipitation 2.20 2.97  
Year to date precipitation 56.21 36.95  
Snow  
Snow 0.00 in 0.00 in - ()
Month to date snowfall 0.0 0.0  
Since 1 July snowfall 0.0 0.0  
Snow Depth 0.00 in    
Sea Level Pressure  
Sea Level Pressure 30.06 in    
Wind  
Wind Speed 8 mph (SSW)    
Max Wind Speed 15 mph    
Max Gust Speed 20 mph    
Visibility 10 miles    
Events Rain    
T = Trace of Precipitation, MM = Missing Value Source: NWS Daily Summary

Daily Weather History Graph

Daily Weather History Graph

Search for Another Location

Airport or City:

Trip Planner

Search our weather history database for the weather conditions in past years. The results will help you decide how hot, cold, wet, or windy it might be!

Date:

Astronomy

Oct. 24, 2011 Rise Set
Actual Time 7:16 AM EDT 6:02 PM EDT
Civil Twilight 6:48 AM EDT 6:30 PM EDT
Nautical Twilight 6:16 AM EDT 7:02 PM EDT
Astronomical Twilight 5:44 AM EDT 7:34 PM EDT
Moon 4:31 AM EDT (10/24) 4:26 PM EDT (10/24)
Length of Visible Light 11h 42m
Length of Day
10h 46m
Waning Crescent, 7% of the Moon is Illuminated
Oct 24
Waning Crescent
Oct 26
New
Nov 2
First Quarter
Nov 10
Full
Nov 18
Last Quarter

Hourly Weather History & Observations

Time (EDT) Temp. Dew Point Humidity Pressure Visibility Wind Dir Wind Speed Gust Speed Precip Events Conditions
12:51 AM 53.1 °F 42.1 °F 66% 30.13 in 10.0 mi South 3.5 mph - N/A   Scattered Clouds
1:51 AM 52.0 °F 43.0 °F 71% 30.13 in 10.0 mi SSW 5.8 mph - N/A   Scattered Clouds
2:51 AM 52.0 °F 43.0 °F 71% 30.13 in 10.0 mi SSW 4.6 mph - N/A   Scattered Clouds
3:51 AM 51.1 °F 42.1 °F 71% 30.12 in 10.0 mi SSW 4.6 mph - N/A   Scattered Clouds
4:51 AM 51.1 °F 42.1 °F 71% 30.12 in 10.0 mi South 4.6 mph - N/A   Mostly Cloudy
5:51 AM 51.1 °F 43.0 °F 74% 30.11 in 10.0 mi South 4.6 mph - N/A   Mostly Cloudy
6:51 AM 52.0 °F 43.0 °F 71% 30.10 in 10.0 mi SSW 4.6 mph - N/A   Mostly Cloudy
7:51 AM 52.0 °F 44.1 °F 74% 30.12 in 8.0 mi South 5.8 mph - N/A   Mostly Cloudy
8:51 AM 53.1 °F 44.1 °F 71% 30.12 in 9.0 mi South 4.6 mph - N/A   Mostly Cloudy
9:51 AM 55.9 °F 44.1 °F 64% 30.12 in 10.0 mi SSW 6.9 mph - N/A   Mostly Cloudy
10:51 AM 57.9 °F 43.0 °F 58% 30.11 in 10.0 mi South 8.1 mph - N/A   Mostly Cloudy
11:51 AM 59.0 °F 42.1 °F 53% 30.10 in 10.0 mi SSW 9.2 mph - N/A   Mostly Cloudy
12:51 PM 60.1 °F 44.1 °F 55% 30.06 in 10.0 mi South 10.4 mph 16.1 mph N/A   Mostly Cloudy
1:51 PM 60.1 °F 45.0 °F 57% 30.04 in 10.0 mi SSW 11.5 mph - N/A   Overcast
2:51 PM 60.1 °F 45.0 °F 57% 30.02 in 10.0 mi South 10.4 mph - N/A   Mostly Cloudy
3:51 PM 61.0 °F 46.0 °F 58% 30.00 in 10.0 mi South 12.7 mph - N/A   Mostly Cloudy
4:51 PM 59.0 °F 46.0 °F 62% 29.99 in 10.0 mi South 11.5 mph - N/A   Mostly Cloudy
5:51 PM 57.9 °F 45.0 °F 62% 29.99 in 10.0 mi South 10.4 mph - N/A   Mostly Cloudy
6:51 PM 57.9 °F 45.0 °F 62% 29.98 in 10.0 mi South 11.5 mph - N/A   Mostly Cloudy
7:51 PM 57.9 °F 46.0 °F 65% 29.98 in 10.0 mi SSW 6.9 mph - N/A   Scattered Clouds
8:51 PM 57.9 °F 46.0 °F 65% 29.98 in 10.0 mi SW 8.1 mph - N/A   Overcast
9:51 PM 57.9 °F 46.0 °F 65% 29.98 in 10.0 mi SW 8.1 mph - N/A   Overcast
10:51 PM 57.2 °F 46.4 °F 67% 29.96 in 10.0 mi SSW 8.1 mph - N/A Rain Light Rain
11:51 PM 57.9 °F 48.0 °F 70% 29.96 in 10.0 mi WSW 9.2 mph - 0.00 in   Mostly Cloudy